User: anonymous   Login
Location: Unspecified
(0.0000°N, 0.0000°E)
Time: 14:55:12
(UTC+00:00)
Language:

Explorer 22 - Orbit

View from above orbital plane
View from above orbital plane
View from above satellite
View from above satellite

Ground track
Ground track

The orbit data is extracted from the following two-line orbital elements,

1   899U 64064A   17351.86733015 +.00000057 +00000-0 +45544-4 0  9994
2   899 079.6917 279.0706 0119910 255.8900 102.8901 13.82042535676191
Epoch (UTC): 17 December 2017 20:48:57
Eccentricity: 0.0119910
inclination: 79.6917°
perigee height: 869 km
apogee height: 1044 km
right ascension of ascending node: 279.0706°
argument of perigee: 255.8900°
revolutions per day: 13.82042535
mean anomaly at epoch: 102.8901°
orbit number at epoch: 67619

The dashed part of the orbit path shows where the satellite is in the earth's shadow,  

DLR